Hourly Data Report for April 17, 2021

NANAIMO A
BRITISH COLUMBIA
Current Station Operator: NAVCAN

49°03'16.000" N
123°52'12.000" W
28.00 m
1025365
YCD

Download Data

Hourly Data (April 2021)
Hourly Data Report for April 17, 2021
TIME
LST
Temp Definition
°C
Dew Point Definition
°C
Rel Hum Definition
%
Precip. Amount Definition
mm

Wind Dir Definition
10's deg

Wind Spd Definition
km/h
Visibility Definition
km
Stn Press Definition
kPa
Hmdx Definition


Wind Chill Definition


Weather Definition


00:00 9.6 1.8 58 LegendMM 20 4 LegendMM 101.96     LegendNANA
01:00 10.0 1.4 55 LegendMM 24 4 LegendMM 101.99     LegendNANA
02:00 6.9 2.0 71 LegendMM 35 3 LegendMM 102.02     LegendNANA
03:00 7.2 0.9 64 LegendMM   0 LegendMM 102.04     LegendNANA
04:00 5.9 0.9 70 LegendMM 21 2 LegendMM 102.05     LegendNANA
05:00 6.5 1.1 68 LegendMM 24 3 LegendMM 102.06     LegendNANA
06:00 5.9 1.3 72 LegendMM 8 1 LegendMM 102.09     LegendNANA
07:00 10.0 3.3 63 LegendMM 17 4 LegendMM 102.11     LegendNANA
08:00 15.2 4.5 49 LegendMM 3 3 LegendMM 102.11     LegendNANA
09:00 16.9 4.9 45 LegendMM 5 4 LegendMM 102.10     LegendNANA
10:00 19.0 4.6 38 LegendMM 4 6 LegendMM 102.10     LegendNANA
11:00 19.6 6.4 42 LegendMM 13 9 LegendMM 102.08     LegendNANA
12:00 20.8 5.8 37 LegendMM 6 7 LegendMM 102.05     LegendNANA
13:00 22.4 7.3 38 LegendMM 2 10 LegendMM 102.01     LegendNANA
14:00 23.1 7.5 36 LegendMM 9 7 LegendMM 101.96     LegendNANA
15:00 23.9 6.7 33 LegendMM 7 8 LegendMM 101.90     LegendNANA
16:00 23.4 7.2 35 LegendMM 1 10 LegendMM 101.86     LegendNANA
17:00 23.9 4.7 29 LegendMM 3 5 LegendMM 101.83     LegendNANA
18:00 23.0 6.7 34 LegendMM 7 3 LegendMM 101.76     LegendNANA
19:00 19.8 6.3 41 LegendMM 22 8 LegendMM 101.74     LegendNANA
20:00 17.5 5.4 45 LegendMM 32 6 LegendMM 101.77     LegendNANA
21:00 14.3 4.8 53 LegendMM 27 8 LegendMM 101.79     LegendNANA
22:00 14.7 2.8 45 LegendMM 26 7 LegendMM 101.80     LegendNANA
23:00 13.6 3.3 50 LegendMM 26 10 LegendMM 101.81     LegendNANA

Notes on Data Quality.

Legend

  • E = Estimated
  • M = Missing
  • NA = Not Available*
  • [empty] = Indicates an unobserved value
Date modified: